FW1874 Weather Reports


Display with metric or nautical units.
time (UTC)temp
F
wind
direction
speed
MPH
gust
MPH
rain 1hr
in
rain 24hr
in
rain mn
in
humidity
%
barometer
mb
20180524022703 55 166 1.0 1.0 0.00 0.01 0.01 100 1022.6
20180524022503 55 167 1.0 1.0 0.00 0.01 0.01 100 1022.6
20180524022303 55 176 0.0 1.0 0.00 0.01 0.01 100 1022.6
20180524022103 55 171 1.0 1.0 0.00 0.01 0.01 100 1022.6
20180524021903 55 174 1.0 1.0 0.00 0.01 0.01 100 1022.6
20180524021703 55 181 1.0 1.0 0.00 0.01 0.01 100 1022.6
20180524021505 55 183 1.0 1.0 0.00 0.01 0.01 100 1022.6
20180524021443 55 183 1.0 1.0 0.00 0.01 0.01 100 1022.5
20180524021103 55 146 0.0 2.0 0.00 0.01 0.01 100 1022.5
20180524020903 55 135 0.0 2.0 0.00 0.01 0.01 100 1022.5
20180524020703 56 135 0.0 2.0 0.00 0.01 0.01 100 1022.5
20180524020504 56 165 1.0 2.0 0.00 0.01 0.01 100 1022.5
20180524020303 56 182 1.0 2.0 0.00 0.01 0.01 100 1022.4
20180524020103 56 184 1.0 1.0 0.00 0.01 0.01 100 1022.4
20180524015903 56 176 1.0 2.0 0.00 0.01 0.01 100 1022.4
20180524015703 56 136 0.0 2.0 0.00 0.01 0.01 100 1022.4
20180524015504 56 112 0.0 2.0 0.00 0.01 0.01 100 1022.4
20180524015303 56 164 1.0 2.0 0.00 0.01 0.01 100 1022.4
20180524015103 56 188 1.0 2.0 0.00 0.01 0.01 100 1022.3
20180524014903 57 180 1.0 2.0 0.00 0.01 0.01 100 1022.4
20180524014703 58 169 1.0 2.0 0.00 0.01 0.01 100 1022.4
20180524014503 58 186 1.0 2.0 0.00 0.01 0.01 100 1022.3
20180524014303 57 178 1.0 2.0 0.00 0.01 0.01 100 1022.3
20180524014104 56 179 1.0 2.0 0.00 0.01 0.01 100 1022.4
20180524013903 57 190 1.0 2.0 0.00 0.01 0.01 100 1022.3
20180524013703 57 177 1.0 2.0 0.00 0.01 0.01 100 1022.3
20180524013503 56 180 1.0 2.0 0.00 0.01 0.01 100 1022.3
20180524013303 56 187 1.0 2.0 0.00 0.01 0.01 100 1022.3
20180524005303 58 179 1.0 2.0 0.00 0.01 0.01 100 1022.0
20180524005103 58 186 1.0 2.0 0.00 0.01 0.01 100 1021.9
20180524004903 58 170 1.0 2.0 0.00 0.01 0.01 100 1021.9
20180524004703 58 173 1.0 2.0 0.00 0.01 0.01 100 1021.9
20180524003303 58 165 1.0 2.0 0.00 0.01 0.01 100 1021.7
20180524002303 59 176 1.0 3.0 0.00 0.01 0.01 100 1021.6
20180523232903 61 172 2.0 4.0 0.00 0.01 0.01 99 1021.5
20180523232704 61 162 2.0 4.0 0.00 0.01 0.01 99 1021.5
20180523232504 62 148 2.0 4.0 0.00 0.01 0.01 99 1021.5
20180523231904 62 200 2.0 4.0 0.00 0.01 0.01 97 1021.4
20180523231503 62 166 2.0 4.0 0.00 0.01 0.01 97 1021.5
20180523231103 62 167 2.0 4.0 0.00 0.01 0.01 97 1021.5
20180523225903 63 173 2.0 4.0 0.00 0.01 0.01 95 1021.5
20180523225703 63 193 2.0 4.0 0.00 0.01 0.01 95 1021.4
20180523225303 63 187 2.0 4.0 0.00 0.01 0.01 95 1021.4
20180523224103 63 163 2.0 5.0 0.00 0.01 0.01 93 1021.3
20180523223904 63 157 2.0 5.0 0.00 0.01 0.01 92 1021.3
20180523222103 63 183 2.0 7.0 0.00 0.01 0.01 87 1021.3
20180523220703 66 175 2.0 4.0 0.00 0.01 0.01 84 1021.5
20180523214704 66 160 2.0 4.0 0.00 0.01 0.01 88 1021.3
20180523214503 66 154 2.0 4.0 0.00 0.01 0.01 89 1021.4
20180523214304 66 154 2.0 3.0 0.00 0.01 0.01 91 1021.4
20180523214103 66 158 1.0 4.0 0.00 0.01 0.01 91 1021.4
20180523213903 66 139 1.0 4.0 0.00 0.01 0.01 91 1021.4
20180523213703 66 182 1.0 4.0 0.00 0.01 0.01 89 1021.4
20180523213504 66 164 2.0 4.0 0.00 0.01 0.01 89 1021.4
20180523213303 66 191 2.0 4.0 0.00 0.01 0.01 86 1021.4
20180523213103 67 156 2.0 4.0 0.00 0.01 0.01 87 1021.4
20180523212903 67 173 2.0 4.0 0.00 0.01 0.01 87 1021.3
20180523212703 67 166 2.0 5.0 0.00 0.01 0.01 88 1021.4
20180523212503 67 146 2.0 5.0 0.00 0.01 0.01 89 1021.3
20180523212303 68 172 2.0 5.0 0.00 0.01 0.01 87 1021.4
20180523212104 68 182 2.0 5.0 0.00 0.01 0.01 88 1021.4
20180523211903 68 181 2.0 5.0 0.00 0.01 0.01 89 1021.3
20180523211703 68 161 2.0 5.0 0.00 0.01 0.01 91 1021.3
20180523211503 68 128 1.0 3.0 0.00 0.01 0.01 91 1021.3
20180523211303 68 140 1.0 6.0 0.00 0.01 0.01 90 1021.3
20180523211103 68 163 1.0 6.0 0.00 0.01 0.01 90 1021.2
20180523210903 68 131 2.0 6.0 0.00 0.01 0.01 90 1021.2
20180523210703 68 162 2.0 6.0 0.00 0.01 0.01 90 1021.3
20180523210503 68 166 2.0 6.0 0.00 0.01 0.01 89 1021.2
20180523210303 68 156 2.0 5.0 0.00 0.01 0.01 89 1021.2
20180523210103 68 160 3.0 5.0 0.00 0.01 0.01 88 1021.1
20180523205904 69 148 2.0 4.0 0.00 0.01 0.01 90 1021.2
20180523205704 69 141 2.0 4.0 0.00 0.01 0.01 87 1021.2
20180523205503 69 142 2.0 4.0 0.00 0.01 0.01 89 1021.1
20180523205303 69 162 2.0 4.0 0.00 0.01 0.01 91 1021.1
20180523204903 70 135 2.0 4.0 0.00 0.01 0.01 88 1021.1
20180523204703 70 120 1.0 3.0 0.00 0.01 0.01 88 1021.2
20180523204504 70 117 1.0 3.0 0.00 0.01 0.01 91 1021.2
20180523204303 70 173 2.0 3.0 0.00 0.01 0.01 87 1021.2
20180523204104 70 141 1.0 3.0 0.00 0.01 0.01 89 1021.1
20180523203303 72 155 1.0 3.0 0.00 0.01 0.01 87 1020.9
20180523203103 71 105 1.0 2.0 0.00 0.01 0.01 91 1020.9
20180523202904 71 131 1.0 3.0 0.00 0.01 0.01 87 1020.8
20180523202703 71 139 1.0 3.0 0.00 0.01 0.01 90 1020.8
20180523202503 71 114 1.0 4.0 0.00 0.01 0.01 89 1020.8
20180523202303 71 130 2.0 4.0 0.00 0.01 0.01 85 1020.8
20180523202103 72 108 2.0 4.0 0.00 0.01 0.01 86 1020.8
20180523201903 72 148 1.0 4.0 0.00 0.01 0.01 86 1020.8
20180523201703 72 178 2.0 4.0 0.00 0.01 0.01 85 1020.8
20180523201503 72 124 1.0 3.0 0.00 0.01 0.01 88 1020.8
20180523201303 72 150 1.0 4.0 0.00 0.01 0.01 87 1020.8
20180523201103 72 118 1.0 4.0 0.00 0.01 0.01 88 1020.7
20180523200903 72 142 1.0 4.0 0.00 0.01 0.01 89 1020.7
20180523200703 72 140 1.0 4.0 0.00 0.01 0.01 87 1020.7
20180523200503 73 112 2.0 4.0 0.00 0.01 0.01 86 1020.7
20180523200303 73 132 1.0 3.0 0.00 0.01 0.01 89 1020.6
20180523195903 73 165 2.0 4.0 0.00 0.01 0.01 84 1020.7
20180523195703 73 161 2.0 4.0 0.00 0.01 0.01 83 1020.7
20180523195503 73 180 2.0 4.0 0.00 0.01 0.01 82 1020.8
20180523195304 73 180 1.0 4.0 0.00 0.01 0.01 83 1020.8
20180523194903 73 128 1.0 4.0 0.00 0.01 0.01 84 1020.7
20180523194703 73 123 2.0 4.0 0.00 0.01 0.01 84 1020.7
20180523194504 73 135 1.0 4.0 0.00 0.01 0.01 90 1020.7
20180523194303 73 181 2.0 4.0 0.00 0.01 0.01 82 1020.7
20180523194103 73 162 2.0 4.0 0.00 0.01 0.01 79 1020.7
20180523193303 73 174 2.0 4.0 0.00 0.01 0.01 80 1020.7
20180523192903 74 157 2.0 4.0 0.00 0.01 0.01 83 1020.7
20180523192703 74 139 2.0 4.0 0.00 0.01 0.01 81 1020.7
20180523192503 74 165 2.0 3.0 0.00 0.01 0.01 78 1020.7
20180523192303 73 174 2.0 3.0 0.00 0.01 0.01 83 1020.7
20180523192103 74 165 2.0 3.0 0.00 0.01 0.01 81 1020.7
20180523191903 74 129 2.0 3.0 0.00 0.01 0.01 86 1020.7
20180523191703 73 116 1.0 3.0 0.00 0.01 0.01 89 1020.7
20180523191504 73 154 1.0 3.0 0.00 0.01 0.01 83 1020.7
20180523191304 72 169 1.0 3.0 0.00 0.01 0.01 86 1020.7
20180523191103 72 178 2.0 4.0 0.00 0.01 0.01 86 1020.8
20180523190904 72 134 1.0 4.0 0.00 0.01 0.01 89 1020.8
20180523190704 72 132 1.0 4.0 0.00 0.01 0.01 89 1020.8
20180523190504 72 150 2.0 4.0 0.00 0.01 0.01 86 1020.8
20180523190303 73 172 2.0 4.0 0.00 0.01 0.01 86 1020.7
20180523190103 73 108 1.0 4.0 0.00 0.01 0.01 91 1020.7
20180523185904 73 165 2.0 4.0 0.00 0.01 0.01 87 1020.7
20180523185703 72 120 1.0 3.0 0.00 0.01 0.01 92 1020.8
20180523185504 72 120 1.0 3.0 0.00 0.01 0.01 93 1020.8
20180523185303 72 157 1.0 3.0 0.00 0.01 0.01 86 1020.9
20180523185103 72 160 1.0 3.0 0.00 0.01 0.01 89 1020.9
20180523184903 72 167 1.0 3.0 0.00 0.01 0.01 87 1020.9
20180523184703 73 139 1.0 3.0 0.00 0.01 0.01 87 1021.0
20180523184503 73 171 2.0 3.0 0.00 0.01 0.01 82 1021.0
20180523184303 72 172 2.0 3.0 0.00 0.01 0.01 81 1021.0
20180523184103 72 178 2.0 3.0 0.00 0.01 0.01 86 1021.0
20180523183903 72 144 2.0 3.0 0.00 0.01 0.01 87 1021.0
20180523183703 72 121 2.0 3.0 0.00 0.01 0.01 83 1021.0
20180523183503 72 175 2.0 4.0 0.00 0.01 0.01 81 1021.1
20180523183303 72 163 2.0 4.0 0.00 0.01 0.01 80 1021.1
20180523183103 71 162 2.0 4.0 0.00 0.01 0.01 84 1021.1
20180523182904 71 150 2.0 4.0 0.00 0.01 0.01 84 1021.1
20180523182704 71 199 2.0 4.0 0.00 0.01 0.01 82 1021.1
20180523182504 71 150 2.0 6.0 0.00 0.01 0.01 85 1021.2
20180523182303 71 148 2.0 6.0 0.00 0.01 0.01 83 1021.2
20180523182103 71 115 2.0 6.0 0.00 0.01 0.01 86 1021.2
20180523181904 70 151 2.0 6.0 0.00 0.01 0.01 81 1021.2
20180523181703 71 147 2.0 6.0 0.00 0.01 0.01 84 1021.2
20180523181503 71 159 2.0 5.0 0.00 0.01 0.01 84 1021.2
20180523181303 71 168 3.0 5.0 0.00 0.01 0.01 80 1021.2
20180523181103 71 154 2.0 4.0 0.00 0.01 0.01 83 1021.2
20180523180903 72 150 2.0 4.0 0.00 0.01 0.01 81 1021.2
20180523180703 72 151 2.0 4.0 0.00 0.01 0.01 81 1021.2
20180523180503 73 144 2.0 4.0 0.00 0.01 0.01 82 1021.1
20180523180303 73 161 2.0 3.0 0.00 0.01 0.01 84 1021.1
20180523180103 73 159 2.0 3.0 0.00 0.01 0.01 81 1021.0
20180523175904 73 158 2.0 3.0 0.00 0.01 0.01 84 1021.0
20180523175703 72 154 1.0 3.0 0.00 0.01 0.01 91 1021.0
20180523175503 72 159 2.0 3.0 0.00 0.01 0.01 86 1021.0
20180523175304 72 160 2.0 3.0 0.00 0.01 0.01 91 1021.0
20180523175103 72 185 2.0 5.0 0.00 0.01 0.01 90 1021.1
20180523174903 71 181 2.0 5.0 0.00 0.01 0.01 90 1021.1
20180523174703 71 169 2.0 5.0 0.00 0.01 0.01 90 1021.1
20180523174503 71 151 2.0 5.0 0.00 0.01 0.01 92 1021.1
20180523174303 71 149 2.0 5.0 0.00 0.01 0.01 93 1021.0
20180523174103 71 166 3.0 5.0 0.00 0.01 0.01 90 1021.1
20180523173704 71 150 2.0 4.0 0.00 0.01 0.01 94 1021.1
20180523173503 71 159 2.0 4.0 0.00 0.01 0.01 95 1021.0
20180523173103 71 174 2.0 4.0 0.00 0.01 0.01 93 1021.0
20180523172903 71 138 2.0 4.0 0.00 0.01 0.01 94 1021.0
20180523172703 70 176 2.0 4.0 0.00 0.01 0.01 96 1021.1
20180523172503 70 151 1.0 5.0 0.00 0.01 0.01 96 1021.0
20180523172303 71 162 2.0 5.0 0.00 0.01 0.01 94 1021.1
20180523172103 71 142 2.0 5.0 0.00 0.01 0.01 92 1021.1
20180523171903 72 184 1.0 5.0 0.00 0.01 0.01 94 1021.0
20180523171704 72 142 2.0 5.0 0.00 0.01 0.01 93 1021.1
20180523171504 72 154 1.0 4.0 0.00 0.01 0.01 96 1021.0
20180523171103 71 143 1.0 4.0 0.00 0.01 0.01 98 1021.1
20180523170904 70 131 1.0 4.0 0.00 0.01 0.01 96 1021.1
20180523170703 71 96 1.0 4.0 0.00 0.01 0.01 97 1021.0
20180523170504 71 189 2.0 4.0 0.00 0.01 0.01 94 1021.1
20180523170103 70 99 1.0 5.0 0.00 0.01 0.01 100 1021.0
20180523165903 71 153 1.0 5.0 0.00 0.01 0.01 99 1021.1
20180523165703 71 165 2.0 5.0 0.00 0.01 0.01 95 1021.1
20180523165504 71 172 2.0 5.0 0.00 0.01 0.01 94 1021.0
20180523165303 71 184 2.0 4.0 0.00 0.01 0.01 98 1021.0
20180523165103 71 161 2.0 4.0 0.00 0.01 0.01 98 1021.0
20180523164903 71 162 2.0 3.0 0.00 0.01 0.01 100 1021.0
20180523164704 71 172 2.0 3.0 0.00 0.01 0.01 98 1021.0
20180523164504 71 138 2.0 3.0 0.00 0.01 0.01 100 1021.0
20180523164304 71 175 2.0 3.0 0.00 0.01 0.01 97 1021.0
20180523164103 70 179 2.0 3.0 0.00 0.01 0.01 99 1021.0
20180523163903 70 178 2.0 3.0 0.00 0.01 0.01 99 1021.1
20180523163703 70 174 2.0 3.0 0.00 0.01 0.01 100 1021.1
20180523163503 70 180 2.0 3.0 0.00 0.01 0.01 100 1021.1
20180523163303 70 120 1.0 3.0 0.00 0.01 0.01 100 1021.1
20180523162903 70 136 1.0 2.0 0.00 0.01 0.01 100 1021.1
20180523162703 70 143 1.0 2.0 0.00 0.01 0.01 100 1021.1
20180523162103 69 140 1.0 3.0 0.00 0.01 0.01 100 1021.1
20180523161103 68 131 1.0 3.0 0.00 0.01 0.01 100 1021.1
20180523160903 68 135 2.0 3.0 0.00 0.01 0.01 100 1021.1
20180523154903 68 120 1.0 3.0 0.00 0.01 0.01 100 1021.0
20180523154703 69 132 2.0 3.0 0.00 0.01 0.01 100 1021.0
20180523154503 69 147 1.0 3.0 0.00 0.01 0.01 100 1021.0
20180523154303 69 174 1.0 3.0 0.00 0.01 0.01 100 1021.0
20180523154103 69 136 1.0 4.0 0.00 0.01 0.01 100 1021.0
20180523153903 69 97 1.0 4.0 0.00 0.01 0.01 100 1021.0
20180523153704 69 166 2.0 4.0 0.00 0.01 0.01 100 1021.0
20180523153503 69 110 1.0 4.0 0.00 0.01 0.01 100 1021.0
20180523153304 69 120 2.0 4.0 0.00 0.01 0.01 100 1021.0
20180523153103 69 151 2.0 4.0 0.00 0.01 0.01 100 1021.0
20180523152904 69 160 1.0 4.0 0.00 0.01 0.01 100 1021.0
20180523152703 69 131 1.0 4.0 0.00 0.01 0.01 100 1020.9
20180523152503 69 153 1.0 4.0 0.00 0.01 0.01 100 1020.9
20180523152303 69 151 1.0 4.0 0.00 0.01 0.01 100 1020.9
20180523152104 69 130 1.0 4.0 0.00 0.01 0.01 100 1020.9
20180523151903 69 157 2.0 4.0 0.00 0.01 0.01 100 1020.9
20180523151703 70 142 2.0 4.0 0.00 0.01 0.01 100 1020.9
20180523123503 58 108 0.0 1.0 0.00 0.01 0.01 100 1020.5
20180523123303 58 110 0.0 1.0 0.00 0.01 0.01 100 1020.5
20180523123103 58 155 1.0 1.0 0.00 0.01 0.01 100 1020.4
20180523122903 58 173 1.0 1.0 0.00 0.01 0.01 100 1020.4
20180523122703 58 166 1.0 2.0 0.00 0.01 0.01 100 1020.4
20180523122503 58 176 1.0 2.0 0.00 0.01 0.01 100 1020.4
20180523122304 58 167 0.0 2.0 0.00 0.01 0.01 100 1020.3
20180523122104 57 170 0.0 2.0 0.00 0.01 0.01 100 1020.3
20180523110103 55 99 0.0 1.0 0.00 0.01 0.01 100 1019.2
20180523105903 55 122 0.0 1.0 0.00 0.01 0.01 100 1019.1
20180523105305 56 152 0.0 1.0 0.00 0.00 0.00 100 1018.2